Time,TemperatureF,DewpointF,PressureIn,WindDirection,WindDirectionDegrees,WindSpeedMPH,WindSpeedGustMPH,Humidity,HourlyPrecipIn,Conditions,Clouds,dailyrainin,SolarRadiationWatts/m^2,SoftwareType,DateUTC
2013-01-25 00:04:00,22.9,12.5,30.30,ESE,119,12.0,12.0,64,0.00,,,0.00,0,Wunderground v.1.15,2013-01-25 06:04:00,
2013-01-25 00:09:00,22.9,12.2,30.30,SE,126,11.0,11.0,63,0.00,,,0.00,0,Wunderground v.1.15,2013-01-25 06:09:00,
2013-01-25 00:14:00,23.0,12.6,30.30,ESE,119,10.0,11.0,64,0.00,,,0.00,0,Wunderground v.1.15,2013-01-25 06:14:00,
2013-01-25 00:19:00,23.0,12.6,30.31,ESE,115,9.0,9.0,64,0.00,,,0.00,0,Wunderground v.1.15,2013-01-25 06:19:00,
2013-01-25 00:29:00,23.1,12.4,30.31,ESE,113,7.0,7.0,63,0.00,,,0.00,0,Wunderground v.1.15,2013-01-25 06:29:00,
2013-01-25 00:34:00,23.2,12.5,30.30,ESE,114,8.0,8.0,63,0.00,,,0.00,0,Wunderground v.1.15,2013-01-25 06:34:00,
2013-01-25 00:39:00,23.2,12.5,30.30,ESE,113,8.0,8.0,63,0.00,,,0.00,0,Wunderground v.1.15,2013-01-25 06:39:00,
2013-01-25 00:44:00,23.2,12.5,30.30,ESE,114,7.0,8.0,63,0.00,,,0.00,0,Wunderground v.1.15,2013-01-25 06:44:00,
2013-01-25 00:49:00,23.3,12.6,30.29,SE,125,7.0,9.0,63,0.00,,,0.00,0,Wunderground v.1.15,2013-01-25 06:49:00,
2013-01-25 00:54:00,23.3,12.6,30.29,SE,127,8.0,9.0,63,0.00,,,0.00,0,Wunderground v.1.15,2013-01-25 06:54:00,
2013-01-25 01:04:00,23.3,12.6,30.28,SE,128,9.0,11.0,63,0.00,,,0.00,0,Wunderground v.1.15,2013-01-25 07:04:00,
2013-01-25 01:09:00,23.4,12.6,30.28,SE,130,9.0,9.0,63,0.00,,,0.00,0,Wunderground v.1.15,2013-01-25 07:09:00,
2013-01-25 01:14:00,23.4,12.6,30.28,SE,130,8.0,9.0,63,0.00,,,0.00,0,Wunderground v.1.15,2013-01-25 07:14:00,
2013-01-25 01:19:00,23.4,12.6,30.29,SE,132,7.0,7.0,63,0.00,,,0.00,0,Wunderground v.1.15,2013-01-25 07:19:00,
2013-01-25 01:24:00,23.4,12.6,30.28,SE,132,7.0,10.0,63,0.00,,,0.00,0,Wunderground v.1.15,2013-01-25 07:24:00,
2013-01-25 01:34:00,23.5,12.7,30.28,SE,128,10.0,10.0,63,0.00,,,0.00,0,Wunderground v.1.15,2013-01-25 07:34:00,
2013-01-25 01:39:00,23.5,12.7,30.28,SE,130,7.0,7.0,63,0.00,,,0.00,0,Wunderground v.1.15,2013-01-25 07:39:00,
2013-01-25 01:44:00,23.5,12.7,30.27,SE,131,6.0,7.0,63,0.00,,,0.00,0,Wunderground v.1.15,2013-01-25 07:44:00,
2013-01-25 01:49:00,23.6,12.5,30.26,SSE,147,8.0,12.0,62,0.00,,,0.00,0,Wunderground v.1.15,2013-01-25 07:49:00,
2013-01-25 01:54:00,23.6,12.5,30.26,SE,142,9.0,12.0,62,0.00,,,0.00,0,Wunderground v.1.15,2013-01-25 07:54:00,
2013-01-25 01:59:00,23.7,12.2,30.26,SE,141,10.0,10.0,61,0.00,,,0.00,0,Wunderground v.1.15,2013-01-25 07:59:00,
2013-01-25 02:04:00,23.7,12.6,30.26,SE,142,8.0,10.0,62,0.00,,,0.00,0,Wunderground v.1.15,2013-01-25 08:04:00,
2013-01-25 02:14:00,23.7,12.9,30.25,SE,137,8.0,10.0,63,0.00,,,0.00,0,Wunderground v.1.15,2013-01-25 08:14:00,
2013-01-25 02:19:00,23.7,12.6,30.26,SE,136,7.0,7.0,62,0.00,,,0.00,0,Wunderground v.1.15,2013-01-25 08:19:00,
2013-01-25 02:24:00,23.7,12.6,30.25,SE,134,6.0,7.0,62,0.00,,,0.00,0,Wunderground v.1.15,2013-01-25 08:24:00,
2013-01-25 02:29:00,23.7,12.2,30.24,SE,134,6.0,7.0,61,0.00,,,0.00,0,Wunderground v.1.15,2013-01-25 08:29:00,
2013-01-25 02:34:00,23.7,12.6,30.25,SE,134,6.0,7.0,62,0.00,,,0.00,0,Wunderground v.1.15,2013-01-25 08:34:00,
2013-01-25 02:39:00,23.7,12.2,30.25,SE,134,5.0,5.0,61,0.00,,,0.00,0,Wunderground v.1.15,2013-01-25 08:39:00,
2013-01-25 02:44:00,23.7,12.2,30.25,SE,134,5.0,5.0,61,0.00,,,0.00,0,Wunderground v.1.15,2013-01-25 08:44:00,
2013-01-25 02:49:00,23.8,12.7,30.25,SE,134,5.0,5.0,62,0.00,,,0.00,0,Wunderground v.1.15,2013-01-25 08:49:00,
2013-01-25 02:54:00,23.8,12.7,30.24,SE,134,4.0,5.0,62,0.00,,,0.00,0,Wunderground v.1.15,2013-01-25 08:54:00,
2013-01-25 02:59:00,23.8,12.3,30.25,SE,134,4.0,4.0,61,0.00,,,0.00,0,Wunderground v.1.15,2013-01-25 08:59:00,
2013-01-25 03:09:00,23.7,12.6,30.25,SE,134,1.0,2.0,62,0.00,,,0.00,0,Wunderground v.1.15,2013-01-25 09:09:00,
2013-01-25 03:14:00,23.7,12.6,30.24,SE,134,2.0,3.0,62,0.00,,,0.00,0,Wunderground v.1.15,2013-01-25 09:14:00,
2013-01-25 03:19:00,23.7,12.9,30.24,SE,134,3.0,3.0,63,0.00,,,0.00,0,Wunderground v.1.15,2013-01-25 09:19:00,
2013-01-25 03:24:00,23.6,12.8,30.25,SE,134,3.0,3.0,63,0.00,,,0.00,0,Wunderground v.1.15,2013-01-25 09:24:00,
2013-01-25 03:29:00,23.6,12.8,30.25,SE,134,2.0,2.0,63,0.00,,,0.00,0,Wunderground v.1.15,2013-01-25 09:29:00,
2013-01-25 03:34:00,23.6,12.8,30.25,SE,134,1.0,2.0,63,0.00,,,0.00,0,Wunderground v.1.15,2013-01-25 09:34:00,
2013-01-25 03:39:00,23.6,12.8,30.24,SE,134,1.0,2.0,63,0.00,,,0.00,0,Wunderground v.1.15,2013-01-25 09:39:00,
2013-01-25 03:44:00,23.6,13.2,30.24,SE,134,1.0,2.0,64,0.00,,,0.00,0,Wunderground v.1.15,2013-01-25 09:44:00,
2013-01-25 03:54:00,23.6,12.8,30.24,SE,134,1.0,2.0,63,0.00,,,0.00,0,Wunderground v.1.15,2013-01-25 09:54:00,
2013-01-25 03:59:00,23.6,13.5,30.23,SE,134,2.0,2.0,65,0.00,,,0.00,0,Wunderground v.1.15,2013-01-25 09:59:00,
2013-01-25 04:04:00,23.6,13.2,30.23,SE,134,2.0,3.0,64,0.00,,,0.00,0,Wunderground v.1.15,2013-01-25 10:04:00,
2013-01-25 04:09:00,23.6,13.2,30.22,SE,134,2.0,4.0,64,0.00,,,0.00,0,Wunderground v.1.15,2013-01-25 10:09:00,
2013-01-25 04:19:00,23.6,13.9,30.21,SE,134,3.0,3.0,66,0.00,,,0.00,0,Wunderground v.1.15,2013-01-25 10:19:00,
2013-01-25 04:24:00,23.6,13.5,30.20,SE,136,4.0,6.0,65,0.00,,,0.00,0,Wunderground v.1.15,2013-01-25 10:24:00,
2013-01-25 04:29:00,23.5,13.5,30.20,SE,144,5.0,9.0,65,0.00,,,0.00,0,Wunderground v.1.15,2013-01-25 10:29:00,
2013-01-25 04:34:00,23.6,13.2,30.20,South,172,6.0,9.0,64,0.00,,,0.00,0,Wunderground v.1.15,2013-01-25 10:34:00,
2013-01-25 04:39:00,23.6,13.2,30.19,SSE,167,6.0,6.0,64,0.00,,,0.00,0,Wunderground v.1.15,2013-01-25 10:39:00,
2013-01-25 04:44:00,23.6,13.2,30.19,SSE,165,5.0,7.0,64,0.00,,,0.00,0,Wunderground v.1.15,2013-01-25 10:44:00,
2013-01-25 04:54:00,23.5,13.5,30.19,SSE,163,5.0,6.0,65,0.00,,,0.00,0,Wunderground v.1.15,2013-01-25 10:54:00,
2013-01-25 04:59:00,23.5,13.5,30.19,SSE,163,5.0,5.0,65,0.00,,,0.00,0,Wunderground v.1.15,2013-01-25 10:59:00,
2013-01-25 05:04:00,23.5,13.5,30.19,SSE,163,5.0,5.0,65,0.00,,,0.00,0,Wunderground v.1.15,2013-01-25 11:04:00,
2013-01-25 05:09:00,23.5,13.5,30.18,SSE,163,4.0,5.0,65,0.00,,,0.00,0,Wunderground v.1.15,2013-01-25 11:09:00,
2013-01-25 05:14:00,23.5,13.5,30.19,SSE,163,4.0,5.0,65,0.00,,,0.00,0,Wunderground v.1.15,2013-01-25 11:14:00,
2013-01-25 05:24:00,23.5,13.5,30.18,SSE,163,4.0,4.0,65,0.00,,,0.00,0,Wunderground v.1.15,2013-01-25 11:24:00,
2013-01-25 05:29:00,23.5,13.8,30.18,SSE,164,3.0,3.0,66,0.00,,,0.00,0,Wunderground v.1.15,2013-01-25 11:29:00,
2013-01-25 05:34:00,23.5,13.5,30.18,SSE,164,4.0,4.0,65,0.00,,,0.00,0,Wunderground v.1.15,2013-01-25 11:34:00,
2013-01-25 05:39:00,23.5,13.8,30.18,SSE,164,3.0,3.0,66,0.00,,,0.00,0,Wunderground v.1.15,2013-01-25 11:39:00,
2013-01-25 05:44:00,23.5,13.8,30.18,SSE,164,3.0,3.0,66,0.00,,,0.00,0,Wunderground v.1.15,2013-01-25 11:44:00,
2013-01-25 05:49:00,23.5,13.8,30.18,SSE,164,2.0,2.0,66,0.00,,,0.00,0,Wunderground v.1.15,2013-01-25 11:49:00,
2013-01-25 05:59:00,23.5,13.8,30.19,SSE,164,2.0,3.0,66,0.00,,,0.00,0,Wunderground v.1.15,2013-01-25 11:59:00,
2013-01-25 06:04:00,23.5,13.8,30.18,SSE,164,1.0,3.0,66,0.00,,,0.00,0,Wunderground v.1.15,2013-01-25 12:04:00,
2013-01-25 06:09:00,23.5,14.1,30.18,SSE,164,1.0,1.0,67,0.00,,,0.00,0,Wunderground v.1.15,2013-01-25 12:09:00,
2013-01-25 06:14:00,23.5,14.1,30.18,SSE,164,1.0,3.0,67,0.00,,,0.00,0,Wunderground v.1.15,2013-01-25 12:14:00,
2013-01-25 06:19:00,23.5,14.1,30.18,SSE,164,2.0,2.0,67,0.00,,,0.00,0,Wunderground v.1.15,2013-01-25 12:19:00,
2013-01-25 06:29:00,23.5,14.1,30.18,SSE,164,1.0,1.0,67,0.00,,,0.00,0,Wunderground v.1.15,2013-01-25 12:29:00,
2013-01-25 06:34:00,23.5,14.8,30.18,SSE,164,1.0,1.0,69,0.00,,,0.00,0,Wunderground v.1.15,2013-01-25 12:34:00,
2013-01-25 06:39:00,23.5,14.8,30.19,SSE,164,1.0,1.0,69,0.00,,,0.00,0,Wunderground v.1.15,2013-01-25 12:39:00,
2013-01-25 06:44:00,23.5,14.8,30.19,SSE,164,0.0,1.0,69,0.00,,,0.00,0,Wunderground v.1.15,2013-01-25 12:44:00,
2013-01-25 06:49:00,23.5,15.1,30.19,SSE,164,0.0,1.0,70,0.00,,,0.00,0,Wunderground v.1.15,2013-01-25 12:49:00,
2013-01-25 06:54:00,23.5,15.1,30.18,SSE,164,1.0,2.0,70,0.00,,,0.00,0,Wunderground v.1.15,2013-01-25 12:54:00,
2013-01-25 07:04:00,23.5,15.5,30.18,SSE,164,2.0,2.0,71,0.00,,,0.00,0,Wunderground v.1.15,2013-01-25 13:04:00,
2013-01-25 07:09:00,23.5,15.5,30.18,SSE,164,2.0,2.0,71,0.00,,,0.00,0,Wunderground v.1.15,2013-01-25 13:09:00,
2013-01-25 07:14:00,23.5,15.5,30.18,SSE,164,2.0,2.0,71,0.00,,,0.00,0,Wunderground v.1.15,2013-01-25 13:14:00,
2013-01-25 07:19:00,23.5,15.5,30.18,SSE,164,2.0,3.0,71,0.00,,,0.00,0,Wunderground v.1.15,2013-01-25 13:19:00,
2013-01-25 07:24:00,23.4,15.4,30.18,SSE,164,2.0,3.0,71,0.00,,,0.00,5,Wunderground v.1.15,2013-01-25 13:24:00,
2013-01-25 07:34:00,23.5,15.1,30.18,SSE,164,3.0,4.0,70,0.00,,,0.00,11,Wunderground v.1.15,2013-01-25 13:34:00,
2013-01-25 07:39:00,23.6,15.2,30.18,SSE,164,3.0,3.0,70,0.00,,,0.00,12,Wunderground v.1.15,2013-01-25 13:39:00,
2013-01-25 07:44:00,23.6,15.2,30.17,SSE,164,3.0,4.0,70,0.00,,,0.00,12,Wunderground v.1.15,2013-01-25 13:44:00,
2013-01-25 07:49:00,23.7,15.3,30.17,SSE,164,4.0,4.0,70,0.00,,,0.00,21,Wunderground v.1.15,2013-01-25 13:49:00,
2013-01-25 07:54:00,23.8,15.4,30.17,SSE,164,4.0,5.0,70,0.00,,,0.00,28,Wunderground v.1.15,2013-01-25 13:54:00,
2013-01-25 07:59:00,23.8,15.1,30.17,SSE,164,4.0,4.0,69,0.00,,,0.00,32,Wunderground v.1.15,2013-01-25 13:59:00,
2013-01-25 08:04:00,23.9,15.2,30.18,SSE,165,5.0,5.0,69,0.00,,,0.00,33,Wunderground v.1.15,2013-01-25 14:04:00,
2013-01-25 08:09:00,24.0,15.3,30.17,SSW,197,5.0,7.0,69,0.00,,,0.00,40,Wunderground v.1.15,2013-01-25 14:09:00,
2013-01-25 08:14:00,24.1,15.1,30.18,SW,219,6.0,7.0,68,0.00,,,0.00,46,Wunderground v.1.15,2013-01-25 14:14:00,
2013-01-25 08:19:00,24.2,15.2,30.18,SW,223,5.0,7.0,68,0.00,,,0.00,51,Wunderground v.1.15,2013-01-25 14:19:00,
2013-01-25 08:24:00,24.3,15.3,30.18,WSW,238,5.0,7.0,68,0.00,,,0.00,62,Wunderground v.1.15,2013-01-25 14:24:00,
2013-01-25 08:29:00,24.5,15.4,30.18,WSW,240,6.0,7.0,68,0.00,,,0.00,67,Wunderground v.1.15,2013-01-25 14:29:00,
2013-01-25 08:39:00,24.7,15.3,30.18,WSW,252,7.0,7.0,67,0.00,,,0.00,74,Wunderground v.1.15,2013-01-25 14:39:00,
2013-01-25 08:44:00,24.9,15.5,30.18,WSW,253,7.0,7.0,67,0.00,,,0.00,83,Wunderground v.1.15,2013-01-25 14:44:00,
2013-01-25 08:49:00,25.0,15.2,30.18,WSW,257,7.0,8.0,66,0.00,,,0.00,98,Wunderground v.1.15,2013-01-25 14:49:00,
2013-01-25 08:54:00,25.1,15.3,30.18,WSW,249,8.0,8.0,66,0.00,,,0.00,111,Wunderground v.1.15,2013-01-25 14:54:00,
2013-01-25 08:59:00,25.2,15.4,30.18,West,259,8.0,8.0,66,0.00,,,0.00,102,Wunderground v.1.15,2013-01-25 14:59:00,
2013-01-25 09:04:00,25.4,15.3,30.18,WSW,250,8.0,8.0,65,0.00,,,0.00,105,Wunderground v.1.15,2013-01-25 15:04:00,
2013-01-25 09:14:00,25.6,15.5,30.18,West,259,9.0,11.0,65,0.00,,,0.00,128,Wunderground v.1.15,2013-01-25 15:14:00,
2013-01-25 09:19:00,25.8,15.6,30.18,West,261,9.0,9.0,65,0.00,,,0.00,137,Wunderground v.1.15,2013-01-25 15:19:00,
2013-01-25 09:24:00,26.0,15.5,30.18,West,266,9.0,10.0,64,0.00,,,0.00,142,Wunderground v.1.15,2013-01-25 15:24:00,
2013-01-25 09:29:00,26.0,15.5,30.18,West,271,9.0,10.0,64,0.00,,,0.00,158,Wunderground v.1.15,2013-01-25 15:29:00,
2013-01-25 09:34:00,26.2,16.0,30.18,West,261,9.0,10.0,65,0.00,,,0.00,148,Wunderground v.1.15,2013-01-25 15:34:00,
2013-01-25 09:44:00,26.3,15.8,30.18,West,267,11.0,12.0,64,0.00,,,0.00,167,Wunderground v.1.15,2013-01-25 15:44:00,
2013-01-25 09:49:00,26.3,16.1,30.18,WSW,254,11.0,15.0,65,0.00,,,0.00,183,Wunderground v.1.15,2013-01-25 15:49:00,
2013-01-25 09:54:00,26.5,16.3,30.18,West,273,11.0,15.0,65,0.00,,,0.00,188,Wunderground v.1.15,2013-01-25 15:54:00,
2013-01-25 09:59:00,26.7,16.5,30.18,West,263,11.0,12.0,65,0.00,,,0.00,202,Wunderground v.1.15,2013-01-25 15:59:00,
2013-01-25 10:04:00,26.8,16.6,30.18,West,265,11.0,16.0,65,0.00,,,0.00,237,Wunderground v.1.15,2013-01-25 16:04:00,
2013-01-25 10:09:00,26.9,17.0,30.18,West,272,12.0,12.0,66,0.00,,,0.00,229,Wunderground v.1.15,2013-01-25 16:09:00,
2013-01-25 10:19:00,27.1,16.9,30.18,West,266,12.0,12.0,65,0.00,,,0.00,262,Wunderground v.1.15,2013-01-25 16:19:00,
2013-01-25 10:24:00,27.4,17.2,30.18,West,267,11.0,14.0,65,0.00,,,0.00,267,Wunderground v.1.15,2013-01-25 16:24:00,
2013-01-25 10:29:00,27.5,16.9,30.17,West,265,12.0,12.0,64,0.00,,,0.00,320,Wunderground v.1.15,2013-01-25 16:29:00,
2013-01-25 10:34:00,27.5,16.9,30.18,West,272,13.0,13.0,64,0.00,,,0.00,283,Wunderground v.1.15,2013-01-25 16:34:00,
2013-01-25 10:39:00,27.5,16.9,30.17,West,279,12.0,12.0,64,0.00,,,0.00,287,Wunderground v.1.15,2013-01-25 16:39:00,
2013-01-25 10:49:00,28.2,17.6,30.17,WNW,286,12.0,12.0,64,0.00,,,0.00,510,Wunderground v.1.15,2013-01-25 16:49:00,
2013-01-25 10:54:00,28.5,17.5,30.17,West,267,11.0,12.0,63,0.00,,,0.00,462,Wunderground v.1.15,2013-01-25 16:54:00,
2013-01-25 10:59:00,28.6,17.6,30.16,West,265,11.0,11.0,63,0.00,,,0.00,469,Wunderground v.1.15,2013-01-25 16:59:00,
2013-01-25 11:04:00,29.1,18.1,30.15,WNW,286,10.0,11.0,63,0.00,,,0.00,476,Wunderground v.1.15,2013-01-25 17:04:00,
2013-01-25 11:09:00,29.3,18.6,30.15,West,272,10.0,13.0,64,0.00,,,0.00,483,Wunderground v.1.15,2013-01-25 17:09:00,
2013-01-25 11:14:00,29.3,18.3,30.15,WNW,286,11.0,13.0,63,0.00,,,0.00,490,Wunderground v.1.15,2013-01-25 17:14:00,
2013-01-25 11:24:00,29.4,18.0,30.14,WNW,286,11.0,12.0,62,0.00,,,0.00,499,Wunderground v.1.15,2013-01-25 17:24:00,
2013-01-25 11:29:00,29.7,18.3,30.14,WSW,242,10.0,16.0,62,0.00,,,0.00,506,Wunderground v.1.15,2013-01-25 17:29:00,
2013-01-25 11:34:00,30.1,18.3,30.14,WNW,285,11.0,16.0,61,0.00,,,0.00,510,Wunderground v.1.15,2013-01-25 17:34:00,
2013-01-25 11:39:00,30.3,18.1,30.14,WNW,284,11.0,12.0,60,0.00,,,0.00,513,Wunderground v.1.15,2013-01-25 17:39:00,
2013-01-25 11:44:00,30.7,18.4,30.13,West,269,11.0,12.0,60,0.00,,,0.00,515,Wunderground v.1.15,2013-01-25 17:44:00,
2013-01-25 11:49:00,31.0,18.3,30.13,WSW,250,10.0,10.0,59,0.00,,,0.00,522,Wunderground v.1.15,2013-01-25 17:49:00,
2013-01-25 11:54:00,31.4,18.7,30.14,WSW,257,9.0,14.0,59,0.00,,,0.00,522,Wunderground v.1.15,2013-01-25 17:54:00,
2013-01-25 11:59:00,31.6,18.5,30.13,West,280,10.0,13.0,58,0.00,,,0.00,524,Wunderground v.1.15,2013-01-25 17:59:00,
2013-01-25 12:09:00,32.2,19.1,30.12,West,269,12.0,12.0,58,0.00,,,0.00,524,Wunderground v.1.15,2013-01-25 18:09:00,
2013-01-25 12:14:00,32.1,18.6,30.12,West,259,11.0,12.0,57,0.00,,,0.00,527,Wunderground v.1.15,2013-01-25 18:14:00,
2013-01-25 12:19:00,32.3,18.8,30.11,West,273,10.0,10.0,57,0.00,,,0.00,526,Wunderground v.1.15,2013-01-25 18:19:00,
2013-01-25 12:24:00,32.5,18.5,30.11,West,271,11.0,14.0,56,0.00,,,0.00,527,Wunderground v.1.15,2013-01-25 18:24:00,
2013-01-25 12:29:00,32.6,18.6,30.11,West,260,11.0,11.0,56,0.00,,,0.00,527,Wunderground v.1.15,2013-01-25 18:29:00,
2013-01-25 12:34:00,32.8,18.8,30.11,WSW,252,10.0,11.0,56,0.00,,,0.00,524,Wunderground v.1.15,2013-01-25 18:34:00,
2013-01-25 12:39:00,33.1,18.7,30.11,West,260,10.0,15.0,55,0.00,,,0.00,524,Wunderground v.1.15,2013-01-25 18:39:00,
2013-01-25 12:44:00,33.5,18.6,30.11,WSW,253,10.0,15.0,54,0.00,,,0.00,522,Wunderground v.1.15,2013-01-25 18:44:00,
2013-01-25 12:49:00,33.5,18.2,30.11,West,273,12.0,15.0,53,0.00,,,0.00,517,Wunderground v.1.15,2013-01-25 18:49:00,
2013-01-25 12:59:00,33.5,18.2,30.10,West,260,13.0,13.0,53,0.00,,,0.00,513,Wunderground v.1.15,2013-01-25 18:59:00,
2013-01-25 13:09:00,34.2,19.3,30.09,West,269,13.0,15.0,54,0.00,,,0.00,504,Wunderground v.1.15,2013-01-25 19:09:00,
2013-01-25 13:14:00,34.6,19.2,30.10,West,262,13.0,15.0,53,0.00,,,0.00,497,Wunderground v.1.15,2013-01-25 19:14:00,
2013-01-25 13:19:00,34.6,19.2,30.10,West,259,13.0,15.0,53,0.00,,,0.00,497,Wunderground v.1.15,2013-01-25 19:19:00,
2013-01-25 13:24:00,34.8,18.9,30.10,West,264,14.0,18.0,52,0.00,,,0.00,494,Wunderground v.1.15,2013-01-25 19:24:00,
2013-01-25 13:29:00,34.9,19.0,30.10,West,265,14.0,19.0,52,0.00,,,0.00,485,Wunderground v.1.15,2013-01-25 19:29:00,
2013-01-25 13:34:00,35.1,19.2,30.10,West,273,15.0,19.0,52,0.00,,,0.00,476,Wunderground v.1.15,2013-01-25 19:34:00,
2013-01-25 13:44:00,35.4,19.0,30.10,WSW,252,16.0,17.0,51,0.00,,,0.00,466,Wunderground v.1.15,2013-01-25 19:44:00,
2013-01-25 13:49:00,35.7,19.3,30.10,WSW,242,16.0,20.0,51,0.00,,,0.00,457,Wunderground v.1.15,2013-01-25 19:49:00,
2013-01-25 13:54:00,35.9,19.0,30.10,West,273,15.0,20.0,50,0.00,,,0.00,450,Wunderground v.1.15,2013-01-25 19:54:00,
2013-01-25 13:59:00,36.3,19.4,30.09,West,265,14.0,14.0,50,0.00,,,0.00,443,Wunderground v.1.15,2013-01-25 19:59:00,
2013-01-25 14:04:00,36.4,20.0,30.09,WSW,252,14.0,19.0,51,0.00,,,0.00,432,Wunderground v.1.15,2013-01-25 20:04:00,
2013-01-25 14:09:00,36.5,19.6,30.09,WSW,253,15.0,15.0,50,0.00,,,0.00,427,Wunderground v.1.15,2013-01-25 20:09:00,
2013-01-25 14:14:00,36.7,19.8,30.09,West,281,15.0,15.0,50,0.00,,,0.00,418,Wunderground v.1.15,2013-01-25 20:14:00,
2013-01-25 14:19:00,36.9,19.5,30.09,West,275,14.0,17.0,49,0.00,,,0.00,404,Wunderground v.1.15,2013-01-25 20:19:00,
2013-01-25 14:24:00,36.9,19.5,30.09,West,263,15.0,17.0,49,0.00,,,0.00,399,Wunderground v.1.15,2013-01-25 20:24:00,
2013-01-25 14:29:00,36.8,19.9,30.09,West,270,15.0,15.0,50,0.00,,,0.00,390,Wunderground v.1.15,2013-01-25 20:29:00,
2013-01-25 14:39:00,37.3,20.3,30.08,West,273,15.0,15.0,50,0.00,,,0.00,367,Wunderground v.1.15,2013-01-25 20:39:00,
2013-01-25 14:44:00,37.5,20.5,30.08,West,271,14.0,15.0,50,0.00,,,0.00,357,Wunderground v.1.15,2013-01-25 20:44:00,
2013-01-25 14:49:00,37.6,20.6,30.08,West,264,14.0,16.0,50,0.00,,,0.00,350,Wunderground v.1.15,2013-01-25 20:49:00,
2013-01-25 14:54:00,37.7,20.7,30.08,West,259,15.0,16.0,50,0.00,,,0.00,339,Wunderground v.1.15,2013-01-25 20:54:00,
2013-01-25 14:59:00,38.0,20.5,30.08,WNW,284,15.0,18.0,49,0.00,,,0.00,329,Wunderground v.1.15,2013-01-25 20:59:00,
2013-01-25 15:04:00,38.0,20.5,30.08,West,280,14.0,18.0,49,0.00,,,0.00,315,Wunderground v.1.15,2013-01-25 21:04:00,
2013-01-25 15:14:00,38.4,21.4,30.08,West,267,14.0,14.0,50,0.00,,,0.00,290,Wunderground v.1.15,2013-01-25 21:14:00,
2013-01-25 15:19:00,38.6,21.1,30.08,WSW,250,14.0,14.0,49,0.00,,,0.00,279,Wunderground v.1.15,2013-01-25 21:19:00,
2013-01-25 15:24:00,38.7,21.6,30.08,West,265,13.0,14.0,50,0.00,,,0.00,264,Wunderground v.1.15,2013-01-25 21:24:00,
2013-01-25 15:29:00,38.8,21.3,30.09,West,272,13.0,13.0,49,0.00,,,0.00,241,Wunderground v.1.15,2013-01-25 21:29:00,
2013-01-25 15:34:00,38.9,21.3,30.09,WSW,252,14.0,16.0,49,0.00,,,0.00,225,Wunderground v.1.15,2013-01-25 21:34:00,
2013-01-25 15:44:00,39.1,21.5,30.08,West,270,13.0,14.0,49,0.00,,,0.00,186,Wunderground v.1.15,2013-01-25 21:44:00,
2013-01-25 15:49:00,39.2,21.6,30.09,West,259,13.0,13.0,49,0.00,,,0.00,181,Wunderground v.1.15,2013-01-25 21:49:00,
2013-01-25 15:54:00,39.2,21.6,30.09,West,269,12.0,13.0,49,0.00,,,0.00,158,Wunderground v.1.15,2013-01-25 21:54:00,
2013-01-25 15:59:00,39.3,21.7,30.09,West,271,12.0,17.0,49,0.00,,,0.00,148,Wunderground v.1.15,2013-01-25 21:59:00,
2013-01-25 16:04:00,39.3,22.2,30.09,West,262,12.0,17.0,50,0.00,,,0.00,134,Wunderground v.1.15,2013-01-25 22:04:00,
2013-01-25 16:09:00,39.3,22.2,30.09,West,265,12.0,12.0,50,0.00,,,0.00,116,Wunderground v.1.15,2013-01-25 22:09:00,
2013-01-25 16:19:00,39.2,22.1,30.09,West,266,11.0,11.0,50,0.00,,,0.00,88,Wunderground v.1.15,2013-01-25 22:19:00,
2013-01-25 16:24:00,39.2,22.1,30.09,West,261,10.0,11.0,50,0.00,,,0.00,63,Wunderground v.1.15,2013-01-25 22:24:00,
2013-01-25 16:29:00,39.0,22.4,30.09,West,269,10.0,10.0,51,0.00,,,0.00,62,Wunderground v.1.15,2013-01-25 22:29:00,
2013-01-25 16:34:00,38.8,22.7,30.10,West,269,8.0,10.0,52,0.00,,,0.00,49,Wunderground v.1.15,2013-01-25 22:34:00,
2013-01-25 16:39:00,38.7,22.6,30.09,West,267,7.0,11.0,52,0.00,,,0.00,39,Wunderground v.1.15,2013-01-25 22:39:00,
2013-01-25 16:49:00,38.3,22.6,30.09,West,273,8.0,9.0,53,0.00,,,0.00,18,Wunderground v.1.15,2013-01-25 22:49:00,
2013-01-25 16:54:00,37.9,22.7,30.09,West,273,8.0,10.0,54,0.00,,,0.00,12,Wunderground v.1.15,2013-01-25 22:54:00,
2013-01-25 16:59:00,37.4,24.0,30.10,West,271,7.0,7.0,58,0.00,,,0.00,9,Wunderground v.1.15,2013-01-25 22:59:00,
2013-01-25 17:04:00,36.9,22.7,30.10,West,271,6.0,7.0,56,0.00,,,0.00,5,Wunderground v.1.15,2013-01-25 23:04:00,
2013-01-25 17:09:00,36.3,22.9,30.10,West,271,5.0,5.0,58,0.00,,,0.00,0,Wunderground v.1.15,2013-01-25 23:09:00,
2013-01-25 17:14:00,35.7,22.8,30.10,West,271,5.0,5.0,59,0.00,,,0.00,0,Wunderground v.1.15,2013-01-25 23:14:00,
2013-01-25 17:24:00,34.6,22.5,30.10,West,271,4.0,5.0,61,0.00,,,0.00,0,Wunderground v.1.15,2013-01-25 23:24:00,
2013-01-25 17:29:00,34.2,22.1,30.10,West,271,4.0,4.0,61,0.00,,,0.00,0,Wunderground v.1.15,2013-01-25 23:29:00,
2013-01-25 17:34:00,33.7,22.1,30.10,West,271,4.0,4.0,62,0.00,,,0.00,0,Wunderground v.1.15,2013-01-25 23:34:00,
2013-01-25 17:39:00,33.2,22.0,30.10,West,271,3.0,3.0,63,0.00,,,0.00,0,Wunderground v.1.15,2013-01-25 23:39:00,
2013-01-25 17:44:00,32.9,22.0,30.11,West,271,4.0,4.0,64,0.00,,,0.00,0,Wunderground v.1.15,2013-01-25 23:44:00,
2013-01-25 17:54:00,32.6,21.8,30.11,West,271,5.0,5.0,64,0.00,,,0.00,0,Wunderground v.1.15,2013-01-25 23:54:00,
2013-01-25 17:59:00,32.5,22.0,30.12,West,271,5.0,6.0,65,0.00,,,0.00,0,Wunderground v.1.15,2013-01-25 23:59:00,
2013-01-25 18:04:00,32.3,22.2,30.12,West,271,6.0,6.0,66,0.00,,,0.00,0,Wunderground v.1.15,2013-01-26 00:04:00,
2013-01-25 18:09:00,32.5,22.8,30.12,West,274,6.0,6.0,67,0.00,,,0.00,0,Wunderground v.1.15,2013-01-26 00:09:00,
2013-01-25 18:14:00,32.8,22.7,30.13,West,275,7.0,7.0,66,0.00,,,0.00,0,Wunderground v.1.15,2013-01-26 00:14:00,
2013-01-25 18:19:00,33.2,23.1,30.13,WNW,283,8.0,9.0,66,0.00,,,0.00,0,Wunderground v.1.15,2013-01-26 00:19:00,
2013-01-25 18:29:00,33.7,23.5,30.14,WNW,290,9.0,9.0,66,0.00,,,0.00,0,Wunderground v.1.15,2013-01-26 00:29:00,
2013-01-25 18:34:00,33.6,23.8,30.14,WNW,297,8.0,9.0,67,0.00,,,0.00,0,Wunderground v.1.15,2013-01-26 00:34:00,
2013-01-25 18:39:00,33.5,23.7,30.14,WNW,296,8.0,10.0,67,0.00,,,0.00,0,Wunderground v.1.15,2013-01-26 00:39:00,
2013-01-25 18:44:00,33.4,23.6,30.14,WNW,298,9.0,10.0,67,0.00,,,0.00,0,Wunderground v.1.15,2013-01-26 00:44:00,
2013-01-25 18:49:00,33.2,23.4,30.14,NW,304,10.0,12.0,67,0.00,,,0.00,0,Wunderground v.1.15,2013-01-26 00:49:00,
2013-01-25 18:59:00,33.9,23.7,30.15,NW,318,14.0,14.0,66,0.00,,,0.00,0,Wunderground v.1.15,2013-01-26 00:59:00,
2013-01-25 19:04:00,33.8,23.6,30.16,NW,319,13.0,14.0,66,0.00,,,0.00,0,Wunderground v.1.15,2013-01-26 01:04:00,
2013-01-25 19:09:00,33.4,23.3,30.15,NW,319,10.0,10.0,66,0.00,,,0.00,0,Wunderground v.1.15,2013-01-26 01:09:00,
2013-01-25 19:14:00,32.8,23.4,30.15,NW,317,9.0,10.0,68,0.00,,,0.00,0,Wunderground v.1.15,2013-01-26 01:14:00,
2013-01-25 19:19:00,32.3,23.3,30.15,NW,317,9.0,10.0,69,0.00,,,0.00,0,Wunderground v.1.15,2013-01-26 01:19:00,
2013-01-25 19:24:00,31.8,23.1,30.16,NW,316,9.0,10.0,70,0.00,,,0.00,0,Wunderground v.1.15,2013-01-26 01:24:00,
2013-01-25 19:34:00,31.1,22.8,30.15,NW,316,9.0,9.0,71,0.00,,,0.00,0,Wunderground v.1.15,2013-01-26 01:34:00,
2013-01-25 19:39:00,31.0,23.0,30.16,NW,315,9.0,9.0,72,0.00,,,0.00,0,Wunderground v.1.15,2013-01-26 01:39:00,
2013-01-25 19:44:00,31.0,23.0,30.16,NW,317,9.0,9.0,72,0.00,,,0.00,0,Wunderground v.1.15,2013-01-26 01:44:00,
2013-01-25 19:49:00,31.0,23.0,30.16,NW,313,10.0,10.0,72,0.00,,,0.00,0,Wunderground v.1.15,2013-01-26 01:49:00,
2013-01-25 19:54:00,31.1,23.5,30.17,NW,312,10.0,10.0,73,0.00,,,0.00,0,Wunderground v.1.15,2013-01-26 01:54:00,
2013-01-25 20:04:00,30.6,23.0,30.17,NW,309,9.0,9.0,73,0.00,,,0.00,0,Wunderground v.1.15,2013-01-26 02:04:00,
2013-01-25 20:09:00,30.3,23.0,30.17,NW,305,9.0,10.0,74,0.00,,,0.00,0,Wunderground v.1.15,2013-01-26 02:09:00,
2013-01-25 20:14:00,30.2,23.2,30.17,WNW,300,10.0,10.0,75,0.00,,,0.00,0,Wunderground v.1.15,2013-01-26 02:14:00,
2013-01-25 20:19:00,30.3,23.3,30.17,NW,305,10.0,10.0,75,0.00,,,0.00,0,Wunderground v.1.15,2013-01-26 02:19:00,
2013-01-25 20:24:00,30.2,23.2,30.17,WNW,298,10.0,10.0,75,0.00,,,0.00,0,Wunderground v.1.15,2013-01-26 02:24:00,
2013-01-25 20:29:00,30.2,23.2,30.17,WNW,296,9.0,9.0,75,0.00,,,0.00,0,Wunderground v.1.15,2013-01-26 02:29:00,
2013-01-25 20:39:00,29.9,23.3,30.18,WNW,296,7.0,7.0,76,0.00,,,0.00,0,Wunderground v.1.15,2013-01-26 02:39:00,
2013-01-25 20:44:00,29.7,23.1,30.18,WNW,296,6.0,7.0,76,0.00,,,0.00,0,Wunderground v.1.15,2013-01-26 02:44:00,
2013-01-25 20:49:00,29.6,23.0,30.18,WNW,296,6.0,7.0,76,0.00,,,0.00,0,Wunderground v.1.15,2013-01-26 02:49:00,
2013-01-25 20:54:00,29.4,23.1,30.19,WNW,299,7.0,7.0,77,0.00,,,0.00,0,Wunderground v.1.15,2013-01-26 02:54:00,
2013-01-25 20:59:00,29.3,23.0,30.19,WNW,302,7.0,7.0,77,0.00,,,0.00,0,Wunderground v.1.15,2013-01-26 02:59:00,
2013-01-25 21:04:00,28.9,22.6,30.18,WNW,302,7.0,7.0,77,0.00,,,0.00,0,Wunderground v.1.15,2013-01-26 03:04:00,
2013-01-25 21:09:00,28.5,22.5,30.18,WNW,302,7.0,8.0,78,0.00,,,0.00,0,Wunderground v.1.15,2013-01-26 03:09:00,
2013-01-25 21:14:00,28.3,22.6,30.19,WNW,302,7.0,8.0,79,0.00,,,0.00,0,Wunderground v.1.15,2013-01-26 03:14:00,
2013-01-25 21:19:00,28.1,22.4,30.19,WNW,302,8.0,9.0,79,0.00,,,0.00,0,Wunderground v.1.15,2013-01-26 03:19:00,
2013-01-25 21:24:00,28.2,22.8,30.19,NW,304,9.0,10.0,80,0.00,,,0.00,0,Wunderground v.1.15,2013-01-26 03:24:00,
2013-01-25 21:29:00,28.3,22.9,30.19,NW,304,9.0,11.0,80,0.00,,,0.00,0,Wunderground v.1.15,2013-01-26 03:29:00,
2013-01-25 21:34:00,28.6,23.2,30.19,NW,306,10.0,13.0,80,0.00,,,0.00,0,Wunderground v.1.15,2013-01-26 03:34:00,
2013-01-25 21:44:00,28.9,23.2,30.20,NW,311,11.0,12.0,79,0.00,,,0.00,0,Wunderground v.1.15,2013-01-26 03:44:00,
2013-01-25 21:49:00,28.8,23.1,30.21,NW,314,11.0,15.0,79,0.00,,,0.00,0,Wunderground v.1.15,2013-01-26 03:49:00,
2013-01-25 21:54:00,29.0,23.0,30.21,NW,319,13.0,15.0,78,0.00,,,0.00,0,Wunderground v.1.15,2013-01-26 03:54:00,
2013-01-25 21:59:00,28.8,22.8,30.21,NW,319,14.0,14.0,78,0.00,,,0.00,0,Wunderground v.1.15,2013-01-26 03:59:00,
2013-01-25 22:04:00,28.5,22.5,30.22,NW,320,13.0,14.0,78,0.00,,,0.00,0,Wunderground v.1.15,2013-01-26 04:04:00,
2013-01-25 22:14:00,27.9,21.9,30.22,NNW,334,11.0,12.0,78,0.00,,,0.00,0,Wunderground v.1.15,2013-01-26 04:14:00,
2013-01-25 22:19:00,27.6,21.6,30.22,NNW,331,8.0,8.0,78,0.00,,,0.00,0,Wunderground v.1.15,2013-01-26 04:19:00,
2013-01-25 22:24:00,27.2,21.2,30.23,NNW,333,6.0,8.0,78,0.00,,,0.00,0,Wunderground v.1.15,2013-01-26 04:24:00,
2013-01-25 22:29:00,26.6,19.7,30.24,NNW,336,6.0,7.0,75,0.00,,,0.00,0,Wunderground v.1.15,2013-01-26 04:29:00,
2013-01-25 22:34:00,25.8,17.7,30.25,NNW,335,6.0,7.0,71,0.00,,,0.00,0,Wunderground v.1.15,2013-01-26 04:34:00,
2013-01-25 22:39:00,25.2,17.1,30.25,NNW,334,6.0,6.0,71,0.00,,,0.00,0,Wunderground v.1.15,2013-01-26 04:39:00,
2013-01-25 22:49:00,24.3,17.2,30.25,NNW,332,5.0,5.0,74,0.00,,,0.00,0,Wunderground v.1.15,2013-01-26 04:49:00,
2013-01-25 22:54:00,24.0,17.2,30.25,NNW,333,4.0,5.0,75,0.00,,,0.00,0,Wunderground v.1.15,2013-01-26 04:54:00,
2013-01-25 22:59:00,23.6,16.8,30.26,NNW,333,3.0,3.0,75,0.00,,,0.00,0,Wunderground v.1.15,2013-01-26 04:59:00,
2013-01-25 23:04:00,23.3,16.9,30.26,NNW,333,3.0,4.0,76,0.00,,,0.00,0,Wunderground v.1.15,2013-01-26 05:04:00,
2013-01-25 23:09:00,23.1,16.7,30.27,NNW,333,3.0,3.0,76,0.00,,,0.00,0,Wunderground v.1.15,2013-01-26 05:09:00,
2013-01-25 23:19:00,22.6,15.9,30.27,NNW,332,4.0,4.0,75,0.00,,,0.00,0,Wunderground v.1.15,2013-01-26 05:19:00,
2013-01-25 23:24:00,22.4,15.4,30.27,NNW,334,4.0,7.0,74,0.00,,,0.00,0,Wunderground v.1.15,2013-01-26 05:24:00,
2013-01-25 23:29:00,22.2,14.9,30.27,NNW,328,4.0,9.0,73,0.00,,,0.00,0,Wunderground v.1.15,2013-01-26 05:29:00,
2013-01-25 23:34:00,22.2,14.9,30.27,NNW,333,6.0,9.0,73,0.00,,,0.00,0,Wunderground v.1.15,2013-01-26 05:34:00,
2013-01-25 23:39:00,22.1,14.8,30.27,NNW,329,7.0,7.0,73,0.00,,,0.00,0,Wunderground v.1.15,2013-01-26 05:39:00,
2013-01-25 23:44:00,21.9,14.6,30.27,NNW,341,6.0,7.0,73,0.00,,,0.00,0,Wunderground v.1.15,2013-01-26 05:44:00,
2013-01-25 23:54:00,21.5,13.5,30.28,NW,325,6.0,9.0,71,0.00,,,0.00,0,Wunderground v.1.15,2013-01-26 05:54:00,
2013-01-25 23:59:00,21.3,13.0,30.28,NW,326,7.0,10.0,70,0.00,,,0.00,0,Wunderground v.1.15,2013-01-26 05:59:00,